• In Austria
  • List of Countries
  • For 7 days
  • Water Temperature
  • Satellite Maps
  • Weather Map
  • News
  • Weather Widgets
  • user-avatar
    Login

    Hourly Weather Taşköprü

    Today, 22 January, Monday

    Time Temperature Precipitation Wind Pressure Humidity
    00:00 +3°C° 0 mm 3 mps 696 mmHg 80%
    01:00 +3°C° 0 mm 3 mps 696 mmHg 80%
    02:00 +4°C° 0 mm 3 mps 695 mmHg 79%
    03:00 +3°C° 0 mm 3 mps 695 mmHg 80%
    04:00 +3°C° 0 mm 3 mps 694 mmHg 80%
    05:00 +3°C° 0 mm 3 mps 694 mmHg 81%
    06:00 +3°C° 0 mm 3 mps 694 mmHg 80%
    07:00 +4°C° 0 mm 3 mps 694 mmHg 79%
    08:00 +4°C° 0 mm 3 mps 693 mmHg 79%
    09:00 +5°C° 0 mm 3 mps 693 mmHg 72%
    10:00 +7°C° 0 mm 4 mps 693 mmHg 65%
    11:00 +8°C° 0 mm 4 mps 693 mmHg 58%
    12:00 +10°C° 0 mm 4 mps 693 mmHg 57%
    13:00 +10°C° 0 mm 4 mps 692 mmHg 56%
    14:00 +10°C° 0 mm 4 mps 692 mmHg 54%
    15:00 +9°C° 0 mm 3 mps 692 mmHg 60%
    16:00 +8°C° 0 mm 3 mps 692 mmHg 65%
    17:00 +7°C° 0 mm 2 mps 692 mmHg 70%
    18:00 +6°C° 0 mm 2 mps 692 mmHg 72%
    19:00 +6°C° 0 mm 2 mps 692 mmHg 75%
    20:00 +6°C° 0 mm 2 mps 692 mmHg 77%
    21:00 +6°C° 0 mm 2 mps 692 mmHg 79%
    22:00 +6°C° 0 mm 2 mps 693 mmHg 81%
    23:00 +5°C° 0 mm 2 mps 693 mmHg 84%

    Tomorrow, 23 January, Tuesday

    Time Temperature Precipitation Wind Pressure Humidity
    00:00 +5°C° 0 mm 2 mps 693 mmHg 85%
    01:00 +6°C° 0 mm 1 mps 693 mmHg 86%
    02:00 +5°C° 0 mm 1 mps 694 mmHg 88%
    03:00 +5°C° 0.2 mm 2 mps 694 mmHg 88%
    04:00 +5°C° 0.2 mm 2 mps 694 mmHg 88%
    05:00 +5°C° 0.2 mm 2 mps 695 mmHg 88%
    06:00 +4°C° 0.5 mm 3 mps 695 mmHg 88%
    07:00 +3°C° 0.5 mm 4 mps 696 mmHg 87%
    08:00 +3°C° 0.5 mm 4 mps 696 mmHg 87%
    09:00 +2°C° 0.2 mm 5 mps 697 mmHg 84%
    10:00 +2°C° 0.2 mm 5 mps 698 mmHg 80%
    11:00 +2°C° 0.2 mm 5 mps 698 mmHg 77%
    12:00 +2°C° 0.2 mm 5 mps 698 mmHg 76%
    13:00 +1°C° 0.2 mm 5 mps 699 mmHg 75%
    14:00 +1°C° 0.2 mm 5 mps 699 mmHg 74%
    15:00 +1°C° 0.2 mm 5 mps 700 mmHg 76%
    16:00 0°C° 0.2 mm 5 mps 701 mmHg 78%
    17:00 -1°C° 0.2 mm 4 mps 701 mmHg 80%
    18:00 -1°C° 0.1 mm 4 mps 702 mmHg 80%
    19:00 -1°C° 0.1 mm 4 mps 702 mmHg 80%
    20:00 -2°C° 0.1 mm 4 mps 703 mmHg 80%
    21:00 -2°C° 0 mm 4 mps 703 mmHg 80%
    22:00 -2°C° 0 mm 4 mps 704 mmHg 81%
    23:00 -2°C° 0 mm 4 mps 704 mmHg 81%

    Day after tomorrow, 24 January, Wednesday

    Time Temperature Precipitation Wind Pressure Humidity
    00:00 -3°C° 0 mm 4 mps 705 mmHg 81%
    01:00 -3°C° 0 mm 4 mps 705 mmHg 81%
    02:00 -3°C° 0 mm 4 mps 706 mmHg 81%
    03:00 -3°C° 0.1 mm 4 mps 706 mmHg 81%
    04:00 -2°C° 0.1 mm 3 mps 706 mmHg 80%
    05:00 -2°C° 0.1 mm 3 mps 706 mmHg 80%
    06:00 -2°C° 0.1 mm 3 mps 707 mmHg 79%
    07:00 -2°C° 0.1 mm 3 mps 707 mmHg 78%
    08:00 -2°C° 0.1 mm 3 mps 708 mmHg 77%
    09:00 -2°C° 0 mm 3 mps 708 mmHg 72%
    10:00 -1°C° 0 mm 3 mps 709 mmHg 67%
    11:00 -2°C° 0 mm 4 mps 709 mmHg 63%
    12:00 -2°C° 0 mm 4 mps 709 mmHg 63%
    13:00 -2°C° 0 mm 4 mps 709 mmHg 63%
    14:00 -2°C° 0 mm 4 mps 709 mmHg 63%
    15:00 -2°C° 0 mm 4 mps 709 mmHg 67%
    16:00 -2°C° 0 mm 3 mps 709 mmHg 71%
    17:00 -4°C° 0 mm 3 mps 709 mmHg 76%
    18:00 -4°C° 0 mm 3 mps 710 mmHg 77%
    19:00 -5°C° 0 mm 3 mps 710 mmHg 79%
    20:00 -5°C° 0 mm 3 mps 710 mmHg 80%
    21:00 -5°C° 0 mm 3 mps 710 mmHg 79%
    22:00 -6°C° 0 mm 3 mps 710 mmHg 79%
    23:00 -5°C° 0 mm 2 mps 710 mmHg 78%

    25 January, Thursday

    Time Temperature Precipitation Wind Pressure Humidity
    00:00 -5°C° 0 mm 2 mps 710 mmHg 78%
    01:00 -5°C° 0 mm 2 mps 710 mmHg 79%
    02:00 -5°C° 0 mm 2 mps 710 mmHg 79%
    03:00 -5°C° 0.1 mm 2 mps 710 mmHg 79%
    04:00 -5°C° 0.1 mm 2 mps 710 mmHg 79%
    05:00 -5°C° 0.1 mm 2 mps 710 mmHg 79%
    06:00 -5°C° 0.1 mm 2 mps 710 mmHg 79%
    07:00 -4°C° 0.1 mm 2 mps 710 mmHg 79%
    08:00 -4°C° 0.1 mm 2 mps 710 mmHg 79%
    09:00 -3°C° 0.1 mm 2 mps 710 mmHg 75%
    10:00 -2°C° 0.1 mm 2 mps 709 mmHg 71%
    11:00 -2°C° 0.1 mm 2 mps 709 mmHg 67%
    12:00 -2°C° 0 mm 3 mps 709 mmHg 67%
    13:00 -1°C° 0 mm 3 mps 708 mmHg 68%
    14:00 -1°C° 0 mm 3 mps 708 mmHg 68%
    15:00 -2°C° 0 mm 2 mps 708 mmHg 72%
    16:00 -3°C° 0 mm 2 mps 708 mmHg 77%
    17:00 -3°C° 0 mm 2 mps 708 mmHg 81%
    18:00 -4°C° 0 mm 2 mps 708 mmHg 82%
    19:00 -2°C° 0 mm 1 mps 708 mmHg 84%
    20:00 -2°C° 0 mm 1 mps 708 mmHg 85%
    21:00 -2°C° 0 mm 1 mps 708 mmHg 85%
    22:00 -3°C° 0 mm 1 mps 707 mmHg 85%
    23:00 -3°C° 0 mm 1 mps 707 mmHg 86%

    26 January, Friday

    Time Temperature Precipitation Wind Pressure Humidity
    00:00 -3°C° 0 mm 1 mps 707 mmHg 86%
    01:00 -3°C° 0 mm 1 mps 707 mmHg 85%
    02:00 -3°C° 0 mm 1 mps 707 mmHg 85%
    03:00 -2°C° 0.1 mm 1 mps 707 mmHg 85%
    04:00 -2°C° 0.1 mm 1 mps 707 mmHg 85%
    05:00 -2°C° 0.1 mm 1 mps 707 mmHg 85%
    06:00 -2°C° 0 mm 1 mps 707 mmHg 84%
    07:00 -2°C° 0 mm 1 mps 707 mmHg 84%
    08:00 -1°C° 0 mm 1 mps 707 mmHg 83%
    09:00 -2°C° 0 mm 2 mps 707 mmHg 78%
    10:00 -1°C° 0 mm 2 mps 707 mmHg 74%
    11:00 +1°C° 0 mm 2 mps 708 mmHg 69%
    12:00 +1°C° 0 mm 2 mps 707 mmHg 69%
    13:00 +1°C° 0 mm 2 mps 707 mmHg 69%
    14:00 +1°C° 0 mm 3 mps 707 mmHg 69%
    15:00 +1°C° 0 mm 2 mps 707 mmHg 74%
    16:00 -1°C° 0 mm 2 mps 707 mmHg 79%
    17:00 -1°C° 0 mm 2 mps 707 mmHg 84%
    18:00 -2°C° 0 mm 2 mps 707 mmHg 85%
    19:00 -2°C° 0 mm 2 mps 708 mmHg 86%
    20:00 0°C° 0 mm 1 mps 708 mmHg 88%
    21:00 0°C° 0 mm 1 mps 708 mmHg 88%
    22:00 0°C° 0 mm 1 mps 708 mmHg 87%
    23:00 0°C° 0 mm 1 mps 708 mmHg 87%

    27 January, Saturday

    Time Temperature Precipitation Wind Pressure Humidity
    00:00 0°C° 0 mm 1 mps 708 mmHg 87%
    01:00 +1°C° 0 mm 1 mps 709 mmHg 87%
    02:00 +1°C° 0 mm 1 mps 709 mmHg 87%
    03:00 +1°C° 0 mm 1 mps 709 mmHg 87%
    04:00 +1°C° 0 mm 1 mps 709 mmHg 87%
    05:00 +1°C° 0 mm 1 mps 709 mmHg 88%
    06:00 +1°C° 0 mm 1 mps 709 mmHg 87%
    07:00 +2°C° 0 mm 1 mps 709 mmHg 87%
    08:00 +2°C° 0 mm 1 mps 710 mmHg 87%
    09:00 +2°C° 0 mm 2 mps 710 mmHg 82%
    10:00 +2°C° 0 mm 2 mps 710 mmHg 77%
    11:00 +3°C° 0 mm 2 mps 710 mmHg 72%
    12:00 +3°C° 0 mm 2 mps 710 mmHg 71%
    13:00 +3°C° 0 mm 2 mps 710 mmHg 71%
    14:00 +3°C° 0 mm 2 mps 710 mmHg 70%
    15:00 +2°C° 0 mm 2 mps 710 mmHg 74%
    16:00 +1°C° 0 mm 2 mps 710 mmHg 78%
    17:00 -1°C° 0 mm 2 mps 710 mmHg 83%
    18:00 -1°C° 0 mm 2 mps 711 mmHg 84%
    19:00 0°C° 0 mm 1 mps 711 mmHg 85%
    20:00 0°C° 0 mm 1 mps 711 mmHg 87%
    21:00 -1°C° 0 mm 1 mps 711 mmHg 86%
    22:00 -1°C° 0 mm 1 mps 711 mmHg 86%
    23:00 -1°C° 0 mm 1 mps 712 mmHg 86%
    Show more